Regional Weather Roundup
Issued by NWS Sterling, VA

Home | Current Version | Previous Version | Text Only | Print | Product List | Glossary Off
Versions: 1 2 3 4 5 6 7 8 9 10 11 12 13 14 15 16 17 18 19 20 21 22 23 24 25 26 27 28 29 30 31 32 33 34 35 36 37 38 39 40 41 42 43 44 45 46 47 48 49 50

000
ASUS41 KLWX 120810
RWRLWX

REGIONAL WEATHER ROUNDUP
NATIONAL WEATHER SERVICE BALTIMORE MD/WASHINGTON DC
300 AM EST FRI FEB 12 2016

Note: "FAIR" indicates few or no clouds below 12,000 feet
with no significant weather and/or obstructions to visibility.
 TC=TEMPERATURE CELSIUS

 * =Non NWS site. Station does not report precipitation (e.g. rain,
    snow, etc.), thunder, or fog.

DCZ001-MDZ009-015-VAZ040>042-051-053>054-120900-
WASHINGTON METRO

CITY           SKY/WX    TMP DP  RH WIND       PRES   REMARKS
WASHINGTON NAT MOCLDY    21   3  45 NW6       30.34F
DULLES         FAIR      17   4  56 CALM      30.31F
ANDREWS AFB    MOCLDY    20   2  45 NW12G21   30.29F WCI   8
FT BELVOIR     FAIR      17   6  64 N1        30.33F
QUANTICO       FAIR      20  11  68 NW3       30.35F
COLLEGE PARK*  FAIR      21   3  45 CALM      30.32F
LEESBURG*      FAIR      19  12  73 NW14      30.31F WCI   6
MANASSAS*      FAIR      16  12  86 CALM      30.33S
GAITHERSBURG*  CLOUDY    16   0  48 W5        30.33S

$$

MDZ006>007-011-014-120900-
BALTIMORE METRO

CITY           SKY/WX    TMP DP  RH WIND       PRES   REMARKS
BWI AIRPORT    CLOUDY    17   2  51 W3        30.32S
MD SCIENCE CTR   N/A     19   1  45 MISG      30.40R
MARTIN STATE   CLEAR     21   7  53 W3        30.34S
ANNAPOLIS      PTCLDY    21   5  50 NW5       30.32F
FORT MEADE*    CLOUDY    14   9  79 CALM      30.34F

$$

MDZ012-015-019>023-120900-
MARYLAND EASTERN SHORE

CITY           SKY/WX    TMP DP  RH WIND       PRES   REMARKS
OCEAN CITY     CLEAR     20   4  50 NW7       30.32F
SALISBURY      PTCLDY    19   4  51 NW6       30.32S
BAY BRIDGE AP*   N/A     21   1  42 NW9       30.33F WCI  11
CAMBRIDGE*     MOCLDY    21   3  45 NW7       30.32S
EASTON*        MOCLDY    21   5  49 N7        30.36S

$$

MDZ017>025-120900-
SOUTHERN MARYLAND

CITY           SKY/WX    TMP DP  RH WIND       PRES   REMARKS
PATUXENT RIVER PTCLDY    22   3  44 N12       30.33F WCI  10
ST INIGOES     PTCLDY    22   4  46 VRB5      30.33F
LEONARDTOWN*   PTCLDY    21   3  45 MISG        N/A

$$

MDZ003>005-120900-
NORTH CENTRAL MARYLAND

CITY           SKY/WX    TMP DP  RH WIND       PRES   REMARKS
FREDERICK*     CLOUDY    14   5  67 CALM      30.33F
HAGERSTOWN APT CLOUDY    14  -2  49 SW6       30.27S
WESTMINSTER*   CLOUDY    14   5  67 W5        30.25S

$$

MDZ501>502-120900-
WESTERN MARYLAND

CITY           SKY/WX    TMP DP  RH WIND       PRES   REMARKS
OAKLAND*       CLOUDY     3   1  92 W3        30.05S
CUMBERLAND*    CLOUDY    14   7  73 CALM      30.31S

$$

VAZ025>031-120900-
SHENANDOAH VALLEY

CITY           SKY/WX    TMP DP  RH WIND       PRES   REMARKS
WINCHESTER*    FAIR      18   5  57 SW3       30.28S
FRONT ROYAL*   FAIR      18   5  57 CALM      30.27S
LURAY*         FAIR      14   9  79 CALM      30.26S
NEW MARKET*    FAIR      11   6  80 CALM      30.25S
STAUNTON*      FAIR      15   9  79 CALM      30.25S
WAYNESBORO*    FAIR      12   4  73 CALM      30.22S

$$

WVZ021-048>050-054>055-120900-
EASTERN WEST VIRGINIA PANHANDLE

CITY           SKY/WX    TMP DP  RH WIND       PRES   REMARKS
MARTINSBURG    FAIR      14   1  56 CALM      30.28F
PETERSBURG*    FAIR      12   6  76 CALM      30.27S

$$

VAZ036>039-050-120900-
CENTRAL FOOTHILLS

CITY           SKY/WX    TMP DP  RH WIND       PRES   REMARKS
CHARLOTTESVILL FAIR      19   6  57 CALM      30.28S
CULPEPER*      FAIR      16   8  72 CALM      30.32S
ORANGE*        FAIR      19  12  73 CALM      30.31F
GORDONSVILLE*  FAIR      18   9  68 CALM      30.30S
WARRENTON*     FAIR      16  14  89 N3        30.30F

$$

VAZ055>057-120900-
NORTH AND CENTRAL PIEDMONT

CITY           SKY/WX    TMP DP  RH WIND       PRES   REMARKS
FREDERICKSBRG* FAIR      19   8  62 CALM      30.32S
STAFFORD*      FAIR      14   9  80 CALM      30.36F

$$

NCZ024-NYZ072-PAZ021-071-VAZ022-071-120900-
OTHER REGIONAL OBSERVATIONS

CITY           SKY/WX    TMP DP  RH WIND       PRES   REMARKS
NEW YORK CITY  CLEAR     17  -3  41 W8G22     30.24R WCI   7
PHILADELPHIA   CLEAR     19  -3  38 W9        30.30R WCI   8
PITTSBURGH     CLOUDY     6  -1  73 CALM      30.19F
ROANOKE        FAIR      21   6  52 NE3       30.24F
RICHMOND       MOCLDY    20   9  62 CALM      30.33S
RALEIGH        MOCLDY    27   7  42 NE6       30.30S

$$

ANZ530>537-120900-
MARINE OBSERVATIONS

STATION/POSITION TIME  TEMP    WIND        PRES
                       AIR SEA DIR/SP/G
                 (UTC) (F)     (DEG/KT/KT) (MB)
THOMAS PT LIGHT  0800   22 36  320/ 11/ 13 1027.5F
BALT KEY BRIDGE  0700   21     270/ 11/ 13 1027.0F
COVE POINT       0700   22     350/ 12/ 17 1027.8F
LEWISETTA        0700   24 37  360/ 10/ 15 1027.0F
SOLOMONS ISLAND  0700   24 39  340/ 15/ 20   N/A
PINEY POINT      0700           10/  9/ 11   N/A

$$




USA.gov is the U.S. government's official web portal to all federal, state and local government web resources and services.